Location: Avully
(45.9633°N, 6.0228°E)
Time: 02:03:07
(UTC+00:00)

Cosmos 2360 Rocket - Pass Details

Date: 23 May 2024
Orbit: 832 x 846 km, 71.0° (Epoch: 16 June)

Event Time Altitude Azimuth Distance (km) Brightness Sun altitude
Rises 01:58:03 0° 333° (NNW) 3,415 5.8 -15.7°
Reaches altitude 10° 02:00:30 10° 334° (NNW) 2,477 5.0 -15.4°
Maximum altitude 02:06:13 87° 65° (ENE) 853 2.2 -14.9°
Drops below altitude 10° 02:11:53 10° 154° (SSE) 2,460 4.4 -14.3°
Sets 02:14:19 0° 155° (SSE) 3,390 5.1 -14.0°
